Powrót do katalogu

QIANFAN-84

AktywnyŁącznośćPO
NORAD 63170·PAYLOAD·🇨🇳 China

Wystrzelony Mar 11, 2025 z Wenchang Space Launch Site

Loading…

Następne Przeloty (najbliższe 24 godziny)

TLE

ŚwieżeSource: Space-Track

Epoka: Sep 14, 2026, 14:01 UTC

1 63170U 25046M   26257.58449525 -.00000054  00000-0 -10260-3 0  9991
2 63170  88.9654 291.4136 0017175  53.5387 306.7344 13.51017547 84640

Śledź QIANFAN-84 w czasie rzeczywistym z AllMySat

Download on the App Store